User: anonymous   Login
Location: Unspecified
(0.0000°N, 0.0000°E)
Time: 12:36:37
(UTC+00:00)
Language:

USA 274 DEB - Orbit

View from above orbital plane
View from above orbital plane
View from above satellite
View from above satellite

Ground track
Ground track

The orbit data is extracted from the following two-line orbital elements,

1 42065U 17011B   19102.06623451 0.00000000  00000-0  00000-0 0    00
2 42065  63.4359 348.0438 0059000 172.2025 187.7975 13.40781093    02
Epoch (UTC): 12 April 2019 01:35:22
Eccentricity: 0.0059000
inclination: 63.4359°
perigee height: 1062 km
apogee height: 1150 km
right ascension of ascending node: 348.0438°
argument of perigee: 172.2025°
revolutions per day: 13.40781093
mean anomaly at epoch: 187.7975°
orbit number at epoch: 0

The dashed part of the orbit path shows where the satellite is in the earth's shadow,  

DLR